{"data":{"norad_id":63727,"epoch":"2026-05-25T04:15:04.832928Z","epoch_age_seconds":66665,"freshness":"FRESH","line1":"1 63727U 25088D   26145.17713927  .00001435  00000+0  21716-3 0  9995","line2":"2 63727  51.9004 112.4311 0000740  46.8709 313.2315 14.79948392 59080","mean_motion":14.79948392,"eccentricity":7.4e-5,"inclination_deg":51.9004,"raan_deg":112.4311,"arg_perigee_deg":46.8709,"mean_anomaly_deg":313.2315,"bstar":0.00021716,"rev_number":5908,"period_min":97.300690198662,"perigee_km":628.96847668723,"apogee_km":630.00560504528,"semimajor_km":7007.6240408663,"source":"CELESTRAK","updated_at":"2026-05-25T13:38:03.924793Z"}}